Terminal Aerodrome Forecast
Issued by NWS Atlanta, GA

Home | Current Version | Previous Version | Text Only | Print | Product List | Glossary On
Versions: 1 2 3 4 5 6 7 8 9 10 11 12 13 14 15 16 17 18 19 20 21 22 23 24 25 26 27
000
FTUS42 KFFC 050536
TAFAHN
TAF
KAHN 050536Z 0506/0606 11007KT P6SM BKN070 OVC090
     FM051000 08007KT P6SM BKN050
     FM051600 07006KT P6SM VCTS SCT050CB
     FM051800 08005KT P6SM BKN050 PROB30 0518/0524 5SM -TSRA
      BKN045CB
     FM060000 08004KT P6SM BKN070=

USA.gov is the U.S. government's official web portal to all federal, state and local government web resources and services.